Regional Weather Roundup
Issued by NWS Sioux Falls, SD

Home | Current Version | Previous Version | Graphics & Text | Print | Product List | Glossary Off
Versions: 1 2 3 4 5 6 7 8 9 10 11 12 13 14 15 16 17 18 19 20 21 22 23 24 25 26 27 28 29 30 31 32 33 34 35 36 37 38 39 40 41 42 43 44 45 46 47 48 49 50

000
ASUS43 KFSD 221702
RWRFSD

WEATHER ROUNDUP FOR SE SOUTH DAKOTA/SW MINNESOTA/NW IOWA
NATIONAL WEATHER SERVICE SIOUX FALLS SD
1200 PM CDT FRI MAY 22 2015

NOTE: "FAIR" INDICATES FEW OR NO CLOUDS BELOW 12,000 FEET WITH NO
SIGNIFICANT WEATHER AND OR OBSTRUCTIONS TO VISIBILITY.


SDZ038>040-050-052>070-221800-
SOUTHEAST SOUTH DAKOTA

CITY           SKY/WX    TMP DP  RH WIND       PRES   REMARKS
BROOKINGS      SUNNY     70  36  28 E9        30.21S
CHAMBERLAIN    MOSUNNY   68  40  35 SE13G22   30.17F
HURON          SUNNY     71  37  28 SE5       30.18F
MADISON        FAIR      70  34  26 SW6       30.20F
MITCHELL       SUNNY     72  40  31 VRB6      30.19F
SIOUX FALLS    PTSUNNY   71  39  31 NW3       30.20F
WINNER         FAIR      67  35  30 SE16G28   30.16F
YANKTON        MOSUNNY   70  39  32 SE6       30.20S
$$

MNZ071-072-080-081-089-090-097-098-221800-
SOUTHWEST MINNESOTA

CITY           SKY/WX    TMP DP  RH WIND       PRES   REMARKS
FAIRMONT       SUNNY     70  30  23 NE8       30.22S
JACKSON        SUNNY     70  32  24 NE3       30.22F
LUVERNE        SUNNY     70  34  26 CALM      30.21F
MARSHALL       SUNNY     70  34  26 CALM      30.21S
MONTEVIDEO     SUNNY     72  37  28 CALM      30.22S
REDWOOD FALLS  SUNNY     71  33  24 VRB3      30.21S
TRACY          SUNNY     69  33  26 CALM      30.22S
WINDOM         SUNNY     70  34  26 CALM      30.22S
WORTHINGTON    SUNNY     70  36  28 CALM      30.22S
$$

IAZ001>003-012>014-020>022-031-032-NEZ013-014-SDZ071-221800-
NORTHWEST IOWA

CITY           SKY/WX    TMP DP  RH WIND       PRES   REMARKS
DENISON        MOSUNNY   72  41  33 E5        30.21S
ESTHERVILLE    SUNNY     69  33  26 CALM      30.21F
SIOUX CITY     PTSUNNY   71  41  33 S5        30.22S
SPENCER        SUNNY     71  33  24 CALM      30.22S
$$

ABBREVIATIONS USED IN REMARKS
   TC - TEMPERATURE IN CELSIUS
  WCI - WIND CHILL INDEX
   HX - HEAT INDEX
  VSB - VISIBILITY




USA.gov is the U.S. government's official web portal to all federal, state and local government web resources and services.